Find Starlink 32908

NORAD ID: 63084 Int'l Des: 2025-037 Owner: SPXS Country: US Constellation: starlink operational
LEOCIRCULAR

Current View

Loading 3D Globe...

About Starlink 32908

Starlink 32908 (NORAD 63084) is a starlink constellation satellite (v2 mini) launched Feb 23, 2025 by SPXS of US. It operates in LEO, CIRCULAR orbit with a mass of 730.00 kg.

Upcoming Passes

Passes for default location (London). Set your location on the main map for personalized predictions.

Altitude History

Loading altitude history...

Two-Line Element Set

1 63084U 25037H 26263.32473076 .00013273 00000-0 46514-3 0 9998
2 63084 70.0006 221.4331 0002778 277.0558 83.0301 15.29595062 87677
Epoch: Sep 20, 2026 • Age: 24 hours

Current Status

Altitude 488.2 km
Apogee / Perigee N/A
Velocity 7.63 km/s
Sub-Earth Point 59.78°N, 142.63°E
Launch Date Feb 23, 2025
Age 1.5 years
Type internet

Technical Details

Classification Payload
Mass 730.00 kg
Dry Mass 700.00 kg
Length 0.30 m
Span 29.00 m
Shape ? Box + pan
Manufacturer SPXS
Bus Type Starlink V2M
Phase Status In Orbit
Owner/State SPXS/US

Most Searched